Location: Royal Sovereign Shoals
(50.7500°N, 0.4500°E)
Time: 07:41:47
(UTC+00:00)

Daily predictions for brighter satellites

Satellite Brightness Start Highest point End
(mag) Time Altitude Azimuth Time Altitude Azimuth Time Altitude Azimuth
CARTOSAT-1 3.6 19:32:41 10° SSE 19:36:54 63° ENE 19:41:09 10° N
Cosmos 2227 Rocket 3.2 19:32:30 10° NNW 19:37:36 32° NE 19:42:41 10° ESE
ATLAS CENTAUR R/B 2.8 19:35:48 10° NNW 19:38:51 23° NNE 19:42:00 10° E
SL-4 R/B 1.7 19:35:24 10° WNW 19:39:07 88° N 19:42:37 10° ESE
CSL-04 Debris 4.2 19:33:54 10° SSE 19:39:21 84° ENE 19:44:52 10° NNW
Cosmos 1455 4.3 19:38:01 10° SW 19:41:13 30° WNW 19:44:25 10° N
Cosmos 2181 Rocket 4.5 19:35:39 10° SSW 19:41:51 70° WNW 19:48:11 10° N
Iridium 2 4.2 19:39:24 10° NNE 19:41:55 25° ENE 19:44:26 10° SE
Okean 1 Rocket 4.1 19:40:39 10° SSE 19:44:27 28° E 19:48:15 10° NNE
USA 267 3.3 19:38:34 10° ENE 19:45:08 70° SE 19:51:40 10° SW
CSL-04 Rocket 3.7 19:41:28 10° SSE 19:46:59 88° ENE 19:52:27 10° NNW
Cosmos 1975 Rocket 4.4 19:43:18 10° NNW 19:47:23 41° W 19:51:25 10° SSW
Cosmos 1697 Rocket 4.1 19:44:50 10° SE 19:48:18 17° E 19:51:47 10° ENE
BlueWalker 3 2.3 19:45:00 10° SW 19:48:37 42° SSE 19:52:15 10° ENE
Genesis I 3.3 19:47:19 10° NW 19:50:56 66° SW 19:54:31 10° SSE
ATLAS 5 CENTAUR R/B 1.8 19:48:27 10° WSW 19:51:49 56° NW 19:55:39 10° NE
CZ-4C R/B 3.3 19:45:55 10° NW 19:52:29 56° NE 20:00:29 10° ESE
Cosmos 304 Rocket 3.8 19:48:16 10° NNW 19:53:05 82° ENE 19:57:50 10° SSE
Sich 1 Rocket 3.8 19:49:06 10° S 19:53:23 52° E 19:57:44 10° NNE
Cosmos 371 Rocket 3.4 19:49:44 10° NNW 19:54:33 81° WSW 19:59:20 10° SSE
BREEZE-M (TANK) 4.3 19:51:23 10° W 19:55:29 61° SSW 20:10:07 11° ESE
NOSS 8 (E) 4.5 19:57:00 10° NW 20:00:01 62° NE 20:03:08 13° SE
Okean-O 2.7 19:55:49 10° SSE 20:00:10 62° ENE 20:04:32 10° N
CENTAUR R/B 3.8 19:54:19 10° NW 20:01:46 48° NNE 20:10:24 10° ESE
PSLV R/B 4.2 19:58:18 10° S 20:02:01 63° WSW 20:05:48 10° NNW
Cosmos 1656 3.9 19:56:59 10° S 20:02:16 47° ESE 20:07:31 10° NE
Cosmos 2297 Rocket 2.2 20:00:23 10° NNW 20:06:04 75° ENE 20:11:25 12° SE
BREEZE-M R/B 2.4 20:06:38 10° W 20:09:06 39° SSW 20:10:35 18° SE
DELTA 2 DEB (DPAF) 4.2 20:05:29 10° NNE 20:09:43 76° WNW 20:13:56 10° SSW
USA 281 3.3 20:04:57 10° SSE 20:11:32 88° ENE 20:18:09 10° NNW
Okean O Rocket 2.2 20:07:26 10° S 20:11:44 57° W 20:16:05 10° NNW
NOSS 3-1 (A) 3.2 20:06:51 10° SW 20:11:55 88° NW 20:18:08 10° NE
ERS-1 Rocket 3.7 20:09:22 13° SE 20:13:19 38° ENE 20:17:57 10° N
Cosmos 1536 Rocket 3.7 20:09:15 10° NNW 20:13:41 78° W 20:18:08 10° S
Nadezhda 3 Rocket 4.1 20:08:30 10° SSW 20:14:40 81° W 20:20:55 10° N
USA 245 4.4 20:11:14 14° SE 20:15:09 37° ENE 20:18:58 10° N
Cosmos 1605 Rocket 4.2 20:13:22 10° N 20:19:42 59° ENE 20:25:25 12° SSE
USA 229 DEB 3.7 20:15:20 10° SSW 20:21:13 50° ESE 20:27:41 10° NE
USA 229 3.7 20:15:27 10° SSW 20:21:19 49° ESE 20:27:47 10° NE
USA 234 3.7 20:16:49 12° SE 20:22:47 55° SW 20:29:11 10° WNW
Cosmos 2219 4.0 20:18:43 10° NNW 20:24:02 39° NE 20:28:02 16° ESE
Cosmos 1437 Rocket 3.4 20:20:49 10° N 20:24:31 38° ENE 20:26:46 20° SE
Terra 2.5 20:22:35 17° SE 20:25:46 39° ENE 20:30:09 10° N
SPOT 5 3.1 20:21:23 12° SSE 20:26:14 70° ENE 20:31:24 10° N
CZ-4C R/B 2.8 20:23:21 10° NNE 20:26:46 70° ESE 20:30:07 10° S
Cosmos 332 Rocket 3.8 20:22:55 10° NNW 20:27:49 81° ENE 20:31:36 17° SSE
Cosmos 2263 Rocket 3.3 20:24:13 10° NNW 20:29:14 32° NE 20:33:06 15° E
Resurs 01 Rocket 3.0 20:26:24 10° SSW 20:30:30 37° W 20:34:38 10° NNW
COSMOS 2455 2.9 20:25:16 10° NW 20:31:21 86° SW 20:36:05 17° SSE
NOSS 3-1 (C) 4.4 20:26:25 10° WSW 20:31:28 45° NNW 20:37:38 10° NE
IRS-1A Rocket 4.4 20:28:32 14° SSE 20:33:43 74° ENE 20:39:33 10° NNW
Aureole 1 Rocket 2.7 20:32:17 10° NNW 20:35:10 43° ENE 20:36:24 28° ESE
IRS-1C Rocket 4.1 20:31:06 14° SSE 20:35:46 83° ENE 20:41:05 10° NNW
SPOT 3 Rocket 4.1 20:32:45 19° SE 20:36:04 43° ENE 20:40:58 10° N
Cosmos 44 3.5 20:31:29 10° SSW 20:36:50 65° SE 20:42:06 10° NE
ATLAS 3B R/B 3.3 20:34:06 10° WSW 20:41:17 67° NW 20:48:59 10° NE
Cosmos 2151 Rocket 4.5 20:38:27 10° SSW 20:42:45 51° WNW 20:47:07 10° N
Cosmos 1937 Rocket 4.3 20:39:22 10° NNW 20:44:22 39° NE 20:47:19 21° ESE
Cosmos 546 4.5 20:42:27 10° W 20:46:12 76° SSW 20:48:01 29° ESE
Cosmos 1934 Rocket 4.5 20:40:13 10° NNW 20:46:17 62° W 20:52:25 10° S
Cosmos 1892 Rocket 3.4 20:44:51 10° N 20:49:11 74° ENE 20:51:43 24° SSE
Landsat 4 3.5 20:51:08 26° S 20:52:59 81° WSW 20:56:32 10° NNW
Cosmos 2100 Rocket 4.5 20:52:28 10° N 20:58:35 46° ENE 21:01:52 26° SE
Cosmos 1727 Rocket 4.3 20:55:31 21° SSE 20:59:31 50° E 21:05:29 10° NNE
Iridium 4 Rocket 4.0 20:54:07 10° S 20:59:44 72° W 21:05:37 10° N
Cosmos 1898 Rocket 3.6 20:55:09 10° NNW 21:00:23 64° ENE 21:03:00 29° SE
Spot 2 Rocket 3.4 21:00:12 26° SSE 21:03:04 75° ENE 21:08:07 10° NNW
Tiangong 0.3 21:01:59 10° SW 21:02:26 12° SSW 21:02:26 12° SSW
Cosmos 1869 4.4 21:12:06 26° E 21:12:06 26° E 21:15:02 10° NNE
ATLAS CENTAUR R/B 1.3 21:13:11 10° NW 21:16:57 66° SW 21:17:56 45° S
ARGOS Delta rocket 4.1 21:14:28 31° SSE 21:17:08 72° ENE 21:22:36 10° N
SL-4 R/B 2.5 21:14:27 10° W 21:17:41 33° SSW 21:17:48 32° SSW
USA 81 4.0 21:16:15 30° SSE 21:18:48 65° E 21:24:02 10° NNE
Cosmos 1455 Rocket 3.0 21:16:44 22° SSW 21:19:34 82° W 21:23:59 10° N
Cosmos 405 Rocket 2.8 21:17:30 23° SSW 21:19:43 69° WNW 21:23:25 10° N
Cosmos 1763 Rocket 3.5 21:14:47 10° SSW 21:19:53 82° WNW 21:25:05 10° NNE
Cosmos 2227 Rocket 2.6 21:16:25 10° NW 21:22:00 59° WSW 21:25:01 27° S
Cosmos 2058 2.7 21:18:00 10° N 21:22:03 88° E 21:23:12 46° SSE
MOS 1 Rocket 3.1 21:21:29 43° SE 21:22:46 66° ENE 21:27:11 10° N
Ariane Rocket 3.0 21:20:28 29° S 21:23:05 76° WSW 21:28:09 10° NNW
Cosmos 1980 Rocket 2.6 21:22:08 34° SE 21:23:40 42° ESE 21:28:57 10° NE
EP 1 4.5 21:21:48 10° NW 21:24:17 74° W 21:24:17 74° W
ARIANE 5 R/B 4.0 21:23:50 23° E 21:24:53 25° ENE 21:28:31 10° N
BlueWalker 3 2.1 21:22:56 10° W 21:26:46 70° NNW 21:29:02 23° ENE
USA 267 3.7 21:21:41 10° ENE 21:28:08 62° NNW 21:34:35 10° W
Intercosmos 25 3.2 21:24:09 10° N 21:28:42 64° ENE 21:29:12 56° ESE
Cosmos 292 Rocket 3.7 21:24:02 10° NNW 21:28:48 86° WSW 21:30:24 42° SSE
MetOp-A 3.2 21:30:25 58° SE 21:30:59 70° ENE 21:34:48 10° N
Cosmos 1697 Rocket 2.6 21:25:46 10° SSW 21:31:27 88° ESE 21:37:10 10° NNE
Cosmos 540 Rocket 3.4 21:28:44 12° SSW 21:33:34 84° WNW 21:38:43 10° NNE
NOSS 3-2 (A) 4.0 21:26:59 10° NW 21:34:10 77° NE 21:38:48 30° SE
Cosmos 1459 Rocket 3.9 21:29:44 10° N 21:35:49 73° ENE 21:38:22 37° SSE
ATLAS 5 CENTAUR R/B 4.1 21:33:59 10° WNW 21:36:37 18° NNW 21:39:33 10° NNE
Cosmos 1725 Rocket 4.2 21:33:18 10° N 21:39:22 53° ENE 21:41:31 37° SE
CZ-4C R/B 3.4 21:34:16 10° NW 21:41:14 55° SW 21:45:36 28° S
Cosmos 372 Rocket 4.1 21:42:28 10° NNW 21:47:42 70° WSW 21:49:22 43° S
Cosmos 2297 Rocket 4.1 21:45:21 10° NW 21:49:31 21° W 21:53:14 12° SW
Landsat 5 3.3 21:45:34 10° NNE 21:49:49 89° E 21:50:31 61° SSW
ERS-1 Rocket 4.2 21:49:17 20° SSW 21:52:07 35° W 21:56:42 10° NNW
CENTAUR R/B 3.3 21:45:02 10° NW 21:53:11 76° SW 21:57:37 35° SSE
Spot 1 4.2 21:48:54 10° NNE 21:53:32 75° WNW 21:55:04 40° SSW
Cosmos 2061 Rocket 4.4 21:47:27 10° N 21:53:46 53° ENE 21:55:46 39° SE
H-2A R/B 3.5 21:55:19 29° ENE 21:55:19 29° ENE 21:58:29 10° N
Cosmos 468 Rocket 4.4 21:51:03 11° SW 21:56:02 62° WNW 22:01:15 10° NNE
Cosmos 1606 2.9 22:00:07 59° NNE 22:00:07 59° NNE 22:03:11 10° NNE
Cosmos 1626 Rocket 3.8 21:55:37 10° NNW 22:00:00 63° W 22:00:51 51° SSW
Meteor 2-15 4.4 21:54:45 10° N 22:00:56 88° W 22:03:03 44° S
Cosmos 2369 3.7 21:59:46 49° SSE 22:00:59 62° ESE 22:06:35 10° NE
Cosmos 2173 Rocket 4.1 21:56:54 10° NNW 22:03:16 72° W 22:05:57 37° S
Terra 3.2 22:01:17 21° SW 22:03:26 31° W 22:07:38 10° NNW
Cosmos 841 Rocket 3.3 22:02:56 48° SSW 22:04:24 83° ESE 22:09:34 10° NNE
Cosmos 1544 4.1 22:02:17 10° NNW 22:04:06 34° NNW 22:04:06 34° NNW
Meteor 2-15 Rocket 4.4 21:59:10 10° N 22:05:21 78° E 22:07:09 48° SSE
Cosmos 1271 Rocket 4.1 22:03:15 10° N 22:06:03 28° NE 22:06:03 28° NE
Cosmos 2219 3.8 22:02:54 10° NW 22:08:16 45° WSW 22:09:56 35° SSW
USA 229 DEB 4.4 22:06:01 10° WSW 22:12:11 52° NNW 22:19:02 10° NE
USA 229 4.4 22:06:07 10° WSW 22:12:16 52° NNW 22:19:08 10° NE
Cosmos 2263 Rocket 2.4 22:07:59 10° NW 22:13:31 60° WSW 22:14:47 47° SSW
Cosmos 1862 3.5 22:10:35 10° N 22:14:02 60° NE 22:14:02 60° NE
Cosmos 1953 Rocket 4.5 22:11:10 10° N 22:15:01 35° ENE 22:15:01 35° ENE
Meteor 2-1 Rocket 4.5 22:13:23 31° SW 22:15:59 63° WNW 22:21:29 10° N
Cosmos 1125 Rocket 4.5 22:12:03 10° NNW 22:16:53 36° NE 22:18:08 31° E
Cosmos 2151 4.1 22:13:51 10° N 22:17:23 33° ENE 22:17:23 33° ENE
Cosmos 2360 Rocket 4.2 22:19:22 14° E 22:19:22 14° E 22:20:59 10° ENE
Cosmos 1544 Rocket 4.2 22:20:16 42° WSW 22:21:13 50° WNW 22:25:27 10° N
Cosmos 1864 Rocket 4.5 22:17:29 10° NNW 22:23:39 75° W 22:25:26 48° SSW
Cosmos 2082 4.1 22:19:42 10° NW 22:25:10 50° WSW 22:26:16 44° SSW
Cosmos 1937 Rocket 4.4 22:21:23 10° NW 22:26:18 39° WSW 22:27:26 35° SW
Lacrosse 4 Rocket 2.8 22:30:59 27° NE 22:30:59 27° NE 22:32:58 10° NE
Cosmos 1802 Rocket 4.3 22:25:48 10° NNW 22:31:58 60° W 22:34:05 41° SSW
Cosmos 2228 3.4 22:31:45 54° W 22:32:00 55° WNW 22:36:09 10° N
Cosmos 2322 Rocket 3.6 22:33:31 23° E 22:33:31 23° E 22:36:45 10° NE
Cosmos 2016 Rocket 4.1 22:27:41 10° NNW 22:33:46 68° W 22:35:28 48° SSW
Cosmos 2333 Rocket 4.0 22:39:07 17° E 22:39:07 17° E 22:41:32 10° ENE
Cosmos 1602 Rocket 4.5 22:39:27 10° NNW 22:43:32 39° W 22:43:42 38° W
Cosmos 1076 Rocket 4.3 22:43:27 10° N 22:47:02 44° NE 22:47:02 44° NE
Spot 2 4.4 22:48:16 55° NNE 22:48:16 55° NNE 22:51:41 10° N
Uosat 12 SS-18 rocket 4.5 22:45:41 10° NW 22:49:31 56° WNW 22:49:31 56° WNW
NOSS 3-2 (C) 4.0 22:44:32 10° NW 22:51:51 82° SW 22:54:30 48° SSE
SL-16 R/B 2.5 22:53:44 50° E 22:53:44 50° E 22:58:46 10° NE
Cosmos 1844 3.9 22:48:49 10° NNW 22:54:34 65° ENE 22:55:32 56° ESE
Cosmos 1666 4.0 22:53:19 10° NNW 22:55:33 36° NNW 22:55:33 36° NNW
H-2A R/B 4.0 22:53:56 10° NE 22:55:51 19° ENE 22:55:51 19° ENE
Cosmos 1844 Rocket 2.6 22:51:42 10° NNW 22:57:20 74° ENE 22:57:57 67° ESE
Lacrosse 5 3.6 23:01:30 21° ENE 23:01:30 21° ENE 23:03:17 10° ENE
Cosmos 2084 Rocket 4.3 22:55:19 10° NW 22:58:35 43° N 22:58:35 43° N
Timation 2 Rocket 4.3 22:53:21 10° NNW 22:59:57 61° NE 23:01:43 46° ESE
Cosmos 1606 Rocket 3.9 23:01:32 63° NNW 23:01:32 63° NNW 23:05:21 10° N
ARIANE 5 R/B 3.3 23:01:18 47° W 23:01:18 47° W 23:05:24 10° NNW
Spot 4 3.8 23:01:37 84° NNE 23:01:37 84° NNE 23:06:17 10° NNW
Cosmos 1825 Rocket 4.2 22:57:48 10° NNW 23:01:42 50° WNW 23:01:42 50° WNW
Cosmos 2150 Rocket 4.5 22:59:43 10° NNW 23:04:44 48° ENE 23:05:14 47° ENE
BlueWalker 3 3.6 23:01:28 10° WNW 23:03:28 28° WNW 23:03:28 28° WNW
Cosmos 1980 Rocket 3.3 23:03:48 18° WSW 23:07:42 42° NW 23:13:05 10° NNE
Cosmos 1814 Rocket 3.9 23:09:06 75° W 23:09:21 78° WNW 23:14:32 10° NNE
Cosmos 2298 Rocket 4.4 23:04:36 10° NNW 23:09:50 54° ENE 23:10:21 52° E
USA 267 4.0 23:04:22 10° ENE 23:10:42 52° N 23:17:01 10° WNW
CZ-2C R/B 4.4 23:10:17 10° N 23:14:52 49° WNW 23:15:20 47° W
ALOS 2 2.9 23:17:31 64° N 23:17:31 64° N 23:21:17 10° NNW
Cosmos 2278 3.6 23:16:23 75° SW 23:16:54 86° WNW 23:22:37 10° NNE
ATLAS 5 CENTAUR R/B 4.4 23:19:18 10° NNW 23:22:06 17° NNE 23:25:14 10° NE
Cosmos 2058 Rocket 3.6 23:23:18 54° NNE 23:23:18 54° NNE 23:26:43 10° NNE
H-2A R/B 4.2 23:31:21 23° WNW 23:31:21 23° WNW 23:33:26 10° NW
Cosmos 1570 Rocket 4.0 23:32:58 73° ENE 23:32:58 73° ENE 23:37:49 10° NNE
Meteor 2-21 4.4 23:33:01 63° ESE 23:33:32 66° E 23:39:42 10° NNE
Cosmos 1464 Rocket 3.9 23:28:52 10° N 23:35:17 83° E 23:36:09 68° SSE
Cosmos 1867 4.4 23:30:21 10° NW 23:35:38 46° NE 23:37:30 34° E
CENTAUR R/B 4.5 23:36:40 10° WNW 23:43:08 25° WSW 23:44:46 23° SW
Cosmos 2237 4.4 23:46:18 59° WSW 23:47:08 68° WNW 23:52:51 10° NNE
Cosmos 1513 Rocket 4.5 23:42:26 10° NNW 23:48:30 66° W 23:49:05 62° SW
USA 238 DEB 3.9 23:44:26 10° NW 23:51:40 64° SW 23:52:47 58° SSW
USA 238 3.9 23:44:32 10° NW 23:51:46 65° SW 23:52:54 58° SSW
Cosmos 158 Rocket 4.2 23:53:18 60° ENE 23:53:18 60° ENE 23:57:35 10° NNE
